Flight Track Log - Related Links

Times and Time Zones

All times are in EDT time to prevent confusion due to time zone crossing. See the CTL21 flight status page for this flight to view local times or setup timezone preferences in your user account.

Time Position Orientation Groundspeed Altitude Reporting Facility
EDT Latitude Longitude Course Direction KTS MPH feet Rate Location/Type
Thu 04:44:13 PM 42.6900 -85.5067 179° South 152 175 3,000  Level Chicago Center
Thu 04:45:00 PM 42.6461 -85.5333 182° South  Level Estimated
Thu 04:45:15 PM 42.6481 -85.5083 180° South 150 173 3,000  Level Chicago Center
Thu 04:46:00 PM 42.6069 -85.5333 180° South  Level FlightAware Approximate
Thu 04:46:00 PM 42.6207 -85.5185 187° South  Level FlightAware Approximate
Thu 04:46:17 PM 42.5981 -85.5133 184° South 150 173 3,000  Level Chicago Center
Thu 04:47:00 PM 42.5678 -85.5333 180° South  Level FlightAware Approximate
Thu 04:47:19 PM 42.5561 -85.5147 181° South 150 173 3,000  Level Chicago Center
Thu 04:48:00 PM 42.5287 -85.5355 180° South  Level Estimated
Thu 04:48:21 PM 42.5258 -85.5561 225° Southwest 162 186 3,000  Level Chicago Center
Thu 04:49:00 PM 42.4895 -85.5350 179° South  Level FlightAware Approximate
Thu 04:49:23 PM 42.4992 -85.6025 232° Southwest 157 181 3,000  Level Chicago Center
Thu 04:50:25 PM 42.4725 -85.6481 232° Southwest 156 180 3,000  Level Chicago Center
Thu 04:51:27 PM 42.4283 -85.6497 182° South 159 183 3,000 -48 Level Chicago Center
Thu 04:52:30 PM 42.3772 -85.6528 183° South 155 178 2,900  Descending Chicago Center
Thu 04:53:00 PM 42.4731 -85.5333 180° South  Level FlightAware Approximate
Thu 04:53:31 PM 42.3578 -85.6806 227° Southwest 167 192 3,000  Level Chicago Center
Thu 04:54:33 PM 42.3681 -85.6397 71° East 170 196 2,900 -242 Descending Chicago Center
Thu 04:55:35 PM 42.3367 -85.5983 136° Southeast 159 183 2,500 -288 Descending Chicago Center
Thu 04:56:38 PM 42.2967 -85.5661 149° Southeast 166 191 2,300 -528 Descending Chicago Center
Thu 04:57:40 PM 42.2533 -85.5489 164° South 152 175 1,400 -871 Descending Chicago Center
Thu 04:59:00 PM 42.2333 -85.5500 180° South  Level FlightAware Approximate

Login

Don't have an account? Register now (free) for customized features, flight alerts, and more!